Tacoma Narrows, WA

6:21 PM PDT on April 28, 2017 (GMT -0700)
Tacoma Narrows

Weather History for KTIW - November, 2012

Change the Weather History Date:

Thursday, November 15, 2012

  Actual Average Record
Temperature  
Mean Temperature 42 °F -  
Max Temperature 45 °F 48 °F 64 °F (2001)
Min Temperature 39 °F 40 °F 33 °F (2000)
Degree Days  
Heating Degree Days 23    
Moisture  
Dew Point 39 °F    
Average Humidity 88    
Maximum Humidity 97    
Minimum Humidity 80    
Precipitation  
Precipitation 0.00 in - - ()
Sea Level Pressure  
Sea Level Pressure 30.10 in    
Wind  
Wind Speed 3 mph (North)    
Max Wind Speed 8 mph    
Max Gust Speed -    
Visibility 6 miles    
Events Fog    
Averages and records for this station are not official NWS values.
T = Trace of Precipitation, MM = Missing Value Source: NWS Daily Summary

Daily Weather History Graph

Daily Weather History Graph

Search for Another Location

Airport or City:

Trip Planner

Search our weather history database for the weather conditions in past years. The results will help you decide how hot, cold, wet, or windy it might be!

Date:

Astronomy

Nov. 15, 2012 Rise Set
Actual Time 7:15 AM PST 4:34 PM PST
Civil Twilight 6:41 AM PST 5:07 PM PST
Nautical Twilight 6:04 AM PST 5:44 PM PST
Astronomical Twilight 5:28 AM PST 6:20 PM PST
Moon 9:21 AM PST (11/15) 6:27 PM PST (11/15)
Length of Visible Light 10h 25m
Length of Day
9h 18m
Waxing Crescent, 5% of the Moon is Illuminated
Nov 15
Waxing Crescent
Nov 20
First Quarter
Nov 28
Full
Dec 6
Last Quarter
Dec 13
New

Hourly Weather History & Observations

Time (PST) Temp. Windchill Dew Point Humidity Pressure Visibility Wind Dir Wind Speed Gust Speed Precip Events Conditions
12:34 AM 41.0 °F 39.0 °F 39.2 °F 93% 30.25 in 1.8 mi WNW 3.5 mph - N/A   Clear
12:37 AM 41.0 °F 38.0 °F 39.2 °F 93% 30.25 in 1.0 mi WNW 4.6 mph - N/A   Mist
12:51 AM 41.0 °F 39.0 °F 39.2 °F 93% 30.25 in 0.5 mi NNW 3.5 mph - N/A Fog Fog
12:53 AM 41.0 °F - 39.9 °F 96% 30.25 in 0.5 mi Calm Calm - N/A Fog Fog
1:00 AM 41.0 °F - 39.2 °F 93% 30.24 in 0.2 mi Calm Calm - N/A Fog Fog
1:10 AM 42.8 °F 40.1 °F 39.2 °F 87% 30.24 in 1.0 mi NNE 4.6 mph - N/A   Mist
1:15 AM 42.8 °F - 41.0 °F 93% 30.24 in 3.0 mi Calm Calm - N/A   Mostly Cloudy
1:53 AM 43.0 °F 39.5 °F 42.1 °F 97% 30.24 in 4.0 mi North 5.8 mph - N/A   Overcast
2:53 AM 43.0 °F 39.5 °F 42.1 °F 97% 30.23 in 5.0 mi North 5.8 mph - N/A   Overcast
3:53 AM 43.0 °F 41.3 °F 41.0 °F 93% 30.21 in 8.0 mi North 3.5 mph - N/A   Overcast
4:53 AM 43.0 °F 39.5 °F 41.0 °F 93% 30.19 in 5.0 mi North 5.8 mph - N/A   Overcast
5:33 AM 42.8 °F 39.3 °F 39.2 °F 87% 30.17 in 10.0 mi North 5.8 mph - N/A   Overcast
5:53 AM 43.0 °F 38.8 °F 39.9 °F 89% 30.17 in 10.0 mi NNE 6.9 mph - N/A   Overcast
6:53 AM 43.0 °F 38.8 °F 39.9 °F 89% 30.16 in 10.0 mi North 6.9 mph - N/A   Overcast
7:53 AM 42.1 °F 37.7 °F 39.0 °F 89% 30.14 in 10.0 mi North 6.9 mph - N/A   Mostly Cloudy
8:53 AM 43.0 °F 39.5 °F 39.0 °F 86% 30.13 in 10.0 mi NNE 5.8 mph - N/A   Overcast
9:53 AM 44.1 °F 39.5 °F 39.0 °F 82% 30.11 in 10.0 mi North 8.1 mph - N/A   Overcast
10:53 AM 44.1 °F 40.1 °F 39.9 °F 85% 30.09 in 10.0 mi North 6.9 mph - N/A   Overcast
11:53 AM 44.1 °F 42.5 °F 39.0 °F 82% 30.06 in 10.0 mi NE 3.5 mph - N/A   Overcast
12:53 PM 45.0 °F - 39.0 °F 80% 30.04 in 10.0 mi Calm Calm - N/A   Overcast
1:53 PM 45.0 °F 43.5 °F 39.9 °F 82% 30.03 in 10.0 mi Variable 3.5 mph - N/A   Overcast
2:53 PM 45.0 °F - 39.0 °F 80% 30.02 in 10.0 mi Calm Calm - N/A   Overcast
3:53 PM 44.1 °F - 39.0 °F 82% 30.01 in 10.0 mi Calm Calm - N/A   Scattered Clouds
4:53 PM 43.0 °F - 37.9 °F 82% 30.01 in 10.0 mi Calm Calm - N/A   Scattered Clouds
5:53 PM 41.0 °F - 37.9 °F 89% 30.00 in 10.0 mi Calm Calm - N/A   Mostly Cloudy
6:53 PM 44.1 °F - 39.0 °F 82% 29.99 in 10.0 mi Calm Calm - N/A   Overcast
7:53 PM 42.1 °F - 39.9 °F 92% 29.98 in 7.0 mi Calm Calm - N/A   Scattered Clouds
8:14 PM 42.8 °F - 39.2 °F 87% 29.96 in 6.0 mi Calm Calm - N/A   Mostly Cloudy
8:30 PM 41.0 °F - 37.4 °F 87% 29.96 in 5.0 mi Calm Calm - N/A   Scattered Clouds
8:42 PM 39.2 °F - 37.4 °F 93% 29.96 in 4.0 mi Calm Calm - N/A   Mostly Cloudy
8:53 PM 41.0 °F 39.0 °F 37.9 °F 89% 29.98 in 4.0 mi SSW 3.5 mph - N/A   Mostly Cloudy
9:53 PM 42.1 °F - 39.0 °F 89% 29.97 in 3.0 mi Calm Calm - N/A   Overcast
10:53 PM 43.0 °F - 39.9 °F 89% 29.96 in 6.0 mi Calm Calm - N/A   Overcast
11:27 PM 42.8 °F - 39.2 °F 87% 29.95 in 6.0 mi Calm Calm - N/A   Overcast
11:53 PM 42.1 °F 39.2 °F 39.0 °F 89% 29.96 in 6.0 mi South 4.6 mph - N/A   Overcast